Total_Precipitation_Accumulation
0.96 1.11 1.55 1.99 2.36 2.81 3.07 3.02 2.78 2.80 2.90 2.97 2.74 2.90 3.18 3.50 3.74 3.66 3.56 3.53 3.48 3.42 3.42 3.42 3.39 3.28 3.23 3.09 2.91 2.74 2.65 2.48 2.27 2.21 1.95 1.66 1.45 1.34 1.30 1.35 1.40 1.35 1.30
0.98 1.19 1.58 1.86 2.29 2.66 2.79 3.04 3.09 3.05 2.89 3.20 3.43 3.65 3.95 4.11 4.37 4.63 4.69 4.56 4.32 4.09 3.90 3.81 3.61 3.30 3.14 3.02 2.83 2.68 2.55 2.34 2.17 2.13 2.09 1.75 1.50 1.23 1.07 1.10 1.12 1.15 1.20
1.20 1.39 1.61 1.79 2.08 2.46 2.71 2.99 3.24 3.26 3.16 3.59 4.16 4.59 4.85 4.85 4.91 4.96 5.03 4.97 4.55 4.18 3.89 3.59 3.41 3.20 3.02 2.88 2.82 2.67 2.55 2.36 2.19 2.04 2.12 2.00 1.76 1.40 1.23 1.10 1.09 1.12 1.12
1.09 1.27 1.49 1.85 1.94 2.22 2.49 2.72 3.05 3.41 3.70 4.12 4.66 5.23 5.51 5.63 5.53 5.22 4.98 4.67 4.24 3.85 3.40 3.16 3.15 3.00 2.80 2.62 2.45 2.30 2.23 2.19 2.12 2.03 1.88 1.81 1.74 1.61 1.46 1.31 1.27 1.25 1.19
0.98 1.08 1.22 1.50 1.75 1.98 2.22 2.51 2.83 3.22 3.86 4.66 5.26 5.65 5.94 5.89 5.48 5.01 4.45 4.00 3.66 3.35 3.06 2.84 2.84 2.75 2.49 2.24 1.99 1.82 1.75 1.76 1.83 1.82 1.76 1.68 1.60 1.45 1.35 1.33 1.31 1.29 1.24
1.05 1.04 1.09 1.31 1.51 1.66 1.90 2.24 2.66 3.00 3.55 4.27 4.91 5.23 5.46 5.41 5.05 4.43 3.89 3.50 3.11 2.79 2.53 2.27 2.12 1.99 1.81 1.70 1.58 1.46 1.42 1.41 1.49 1.54 1.51 1.49 1.48 1.45 1.41 1.35 1.27 1.28 1.37
1.13 1.08 1.04 1.12 1.26 1.39 1.61 1.84 2.20 2.68 3.05 3.43 3.99 4.18 4.25 4.09 3.72 3.44 3.21 2.83 2.46 2.14 1.88 1.68 1.55 1.47 1.40 1.36 1.34 1.30 1.27 1.20 1.18 1.20 1.25 1.26 1.22 1.22 1.31 1.41 1.44 1.38 1.34
1.04 1.00 0.95 1.02 1.15 1.30 1.50 1.64 1.86 2.24 2.56 2.68 2.86 2.87 2.82 2.76 2.62 2.43 2.19 1.95 1.71 1.56 1.42 1.26 1.17 1.15 1.17 1.15 1.16 1.13 1.06 0.98 0.91 0.88 0.93 0.98 0.98 1.06 1.22 1.33 1.48 1.56 1.42
1.01 0.99 0.95 0.98 1.10 1.19 1.35 1.42 1.43 1.58 1.69 1.77 1.85 1.93 1.93 1.82 1.80 1.73 1.54 1.38 1.21 1.09 1.01 0.93 0.91 0.88 0.85 0.81 0.80 0.80 0.80 0.82 0.82 0.79 0.78 0.80 0.82 0.92 1.04 1.13 1.27 1.44 1.44
1.02 1.02 0.99 0.99 0.96 0.99 1.07 1.17 1.18 1.19 1.20 1.24 1.23 1.31 1.32 1.22 1.14 1.06 0.99 0.89 0.78 0.68 0.65 0.61 0.60 0.62 0.65 0.62 0.60 0.64 0.69 0.70 0.72 0.75 0.71 0.69 0.68 0.74 0.83 0.91 1.01 1.15 1.28
1.12 1.06 1.02 0.96 0.88 0.85 0.85 0.92 0.96 1.00 1.05 1.06 1.04 1.03 1.00 0.90 0.83 0.79 0.72 0.62 0.55 0.52 0.50 0.50 0.50 0.50 0.54 0.58 0.63 0.66 0.69 0.74 0.71 0.70 0.68 0.64 0.63 0.65 0.67 0.74 0.83 0.94 1.03
1.13 1.05 0.98 0.97 0.90 0.85 0.79 0.80 0.81 0.77 0.83 0.87 0.93 0.94 0.85 0.77 0.72 0.66 0.60 0.56 0.50 0.48 0.50 0.51 0.49 0.45 0.44 0.48 0.55 0.61 0.62 0.69 0.69 0.68 0.67 0.62 0.61 0.63 0.63 0.66 0.71 0.82 0.95
1.27 1.14 1.00 0.92 0.89 0.86 0.83 0.79 0.76 0.71 0.71 0.66 0.65 0.69 0.67 0.62 0.59 0.51 0.47 0.45 0.44 0.44 0.43 0.42 0.41 0.40 0.39 0.39 0.40 0.45 0.50 0.56 0.60 0.62 0.67 0.66 0.64 0.62 0.62 0.67 0.70 0.80 0.92
1.27 1.12 1.01 0.94 0.88 0.85 0.85 0.82 0.77 0.67 0.64 0.60 0.56 0.57 0.56 0.54 0.52 0.49 0.45 0.40 0.38 0.38 0.36 0.32 0.31 0.31 0.31 0.30 0.29 0.29 0.33 0.39 0.43 0.47 0.59 0.65 0.65 0.63 0.67 0.71 0.75 0.81 0.93
1.28 1.22 1.10 0.99 0.85 0.76 0.76 0.76 0.76 0.70 0.63 0.61 0.61 0.61 0.53 0.50 0.50 0.50 0.46 0.41 0.38 0.34 0.33 0.30 0.26 0.24 0.23 0.23 0.24 0.24 0.24 0.32 0.35 0.38 0.47 0.54 0.58 0.59 0.61 0.63 0.69 0.80 0.93
1.52 1.47 1.29 1.11 0.96 0.85 0.80 0.77 0.76 0.67 0.59 0.59 0.66 0.68 0.63 0.60 0.58 0.55 0.53 0.48 0.42 0.37 0.31 0.27 0.26 0.23 0.20 0.23 0.22 0.23 0.28 0.34 0.39 0.44 0.47 0.46 0.48 0.48 0.46 0.51 0.59 0.71 0.87
1.58 1.45 1.31 1.19 1.08 1.01 0.91 0.86 0.80 0.71 0.65 0.67 0.66 0.69 0.68 0.67 0.62 0.55 0.54 0.51 0.44 0.38 0.34 0.28 0.27 0.26 0.20 0.17 0.17 0.19 0.28 0.38 0.44 0.48 0.48 0.41 0.42 0.50 0.52 0.52 0.54 0.64 0.73
1.74 1.66 1.47 1.31 1.14 1.00 0.92 0.83 0.74 0.71 0.72 0.72 0.69 0.63 0.59 0.56 0.52 0.50 0.51 0.46 0.41 0.36 0.34 0.30 0.27 0.27 0.19 0.15 0.15 0.17 0.24 0.30 0.33 0.34 0.39 0.47 0.51 0.47 0.48 0.48 0.58 0.66 0.77
1.66 1.60 1.45 1.33 1.20 1.05 0.92 0.83 0.77 0.73 0.72 0.70 0.63 0.53 0.47 0.46 0.44 0.46 0.46 0.42 0.40 0.37 0.33 0.30 0.30 0.31 0.24 0.17 0.15 0.17 0.24 0.27 0.26 0.24 0.28 0.34 0.39 0.38 0.44 0.53 0.69 0.73 0.84
1.17 1.16 1.13 1.08 1.01 0.90 0.78 0.77 0.75 0.68 0.63 0.58 0.50 0.42 0.38 0.40 0.41 0.41 0.41 0.39 0.37 0.34 0.30 0.30 0.31 0.28 0.26 0.17 0.14 0.15 0.19 0.25 0.23 0.27 0.31 0.30 0.26 0.31 0.40 0.55 0.74 0.87 0.92
0.96 0.91 0.87 0.88 0.83 0.73 0.70 0.71 0.68 0.63 0.51 0.43 0.42 0.41 0.38 0.39 0.38 0.39 0.40 0.38 0.34 0.34 0.32 0.33 0.32 0.28 0.22 0.16 0.10 0.10 0.15 0.19 0.23 0.30 0.36 0.35 0.29 0.31 0.36 0.50 0.70 0.86 0.91
1.00 0.92 0.84 0.76 0.65 0.61 0.67 0.71 0.64 0.48 0.39 0.38 0.41 0.42 0.37 0.30 0.28 0.36 0.40 0.36 0.37 0.38 0.38 0.38 0.33 0.27 0.20 0.15 0.11 0.09 0.08 0.11 0.25 0.40 0.38 0.36 0.35 0.35 0.42 0.55 0.72 0.86 1.04
0.94 0.88 0.76 0.66 0.54 0.48 0.53 0.57 0.46 0.32 0.31 0.38 0.43 0.42 0.35 0.34 0.30 0.32 0.35 0.34 0.35 0.32 0.30 0.31 0.30 0.27 0.24 0.19 0.13 0.11 0.10 0.12 0.22 0.36 0.40 0.39 0.37 0.48 0.68 0.80 0.90 1.03 1.22
0.72 0.65 0.61 0.55 0.44 0.37 0.35 0.33 0.25 0.25 0.30 0.36 0.39 0.38 0.37 0.38 0.38 0.33 0.24 0.24 0.26 0.24 0.23 0.26 0.28 0.30 0.30 0.22 0.17 0.18 0.19 0.20 0.24 0.34 0.47 0.54 0.57 0.72 0.94 1.09 1.18 1.26 1.29
0.51 0.48 0.49 0.45 0.33 0.26 0.23 0.18 0.17 0.21 0.28 0.31 0.32 0.33 0.33 0.33 0.39 0.33 0.20 0.14 0.14 0.11 0.14 0.19 0.21 0.27 0.27 0.18 0.16 0.17 0.20 0.23 0.26 0.32 0.49 0.65 0.70 0.82 0.98 1.12 1.20 1.23 1.21
0.40 0.41 0.39 0.35 0.27 0.22 0.19 0.15 0.12 0.16 0.27 0.29 0.26 0.20 0.18 0.21 0.24 0.27 0.24 0.12 0.05 0.04 0.04 0.06 0.09 0.12 0.14 0.12 0.11 0.14 0.19 0.23 0.30 0.39 0.60 0.71 0.71 0.78 0.88 0.98 1.07 1.05 1.00